Wind_Speed
22 22 23 23 24 24 23 23 23 24 24 24 25 25 25 25 25 26 24 22 21 20 20 20 19 19 19 19 19 19 19 19 18 18 18 17 16 16 15 14 14 13 12 12 12 11 10 10 10
22 23 24 24 25 25 24 24 25 25 24 25 26 26 26 26 27 26 25 23 22 22 22 22 21 21 20 20 20 20 20 20 20 20 19 19 18 18 17 16 15 14 14 13 13 13 13 12 11
23 24 24 25 25 25 24 25 25 25 25 26 27 27 27 27 28 27 26 25 24 24 23 23 23 23 22 22 22 22 22 21 21 21 21 20 20 19 19 18 17 16 16 15 14 14 14 14 13
23 24 25 26 25 25 25 26 26 25 26 27 27 28 28 28 29 28 27 27 26 25 25 24 24 24 24 24 24 24 23 23 22 22 22 21 21 20 20 19 19 18 17 17 16 15 15 15 14
24 25 25 25 25 24 25 26 26 26 26 26 27 28 28 29 29 28 28 28 28 27 26 26 26 26 25 25 25 25 24 24 24 23 23 22 22 22 21 21 20 20 19 18 17 17 17 16 16
24 25 25 25 25 25 25 26 26 26 26 26 26 28 27 28 29 29 28 28 29 28 27 27 27 27 27 26 26 26 26 26 25 25 24 24 24 23 22 22 22 21 20 19 19 18 18 17 17
24 24 25 25 25 25 25 25 26 26 26 26 26 26 27 27 27 28 28 28 29 29 29 29 29 29 29 28 28 27 27 27 27 26 26 26 25 24 23 23 23 23 22 21 20 20 19 19 19
24 24 24 25 25 25 25 25 26 26 26 26 27 26 27 26 26 27 27 28 29 30 30 30 30 30 30 30 29 29 29 29 28 28 28 27 26 26 26 25 25 24 24 23 23 22 21 21 21
24 25 24 25 25 25 24 25 26 26 26 26 27 27 26 26 26 27 28 28 28 29 29 31 30 31 31 31 31 31 31 31 31 30 30 29 28 28 28 28 27 26 26 25 25 24 24 23 23
25 25 24 24 24 25 25 25 25 25 25 26 27 28 27 26 26 27 27 28 29 29 30 31 31 31 32 32 32 32 32 32 33 32 32 31 30 30 30 30 29 28 27 27 27 26 26 25 25
26 25 24 25 25 25 25 25 26 25 25 25 26 28 28 27 26 27 28 29 30 30 30 31 31 32 33 33 33 34 34 34 35 35 35 34 34 33 32 32 31 30 29 28 28 27 27 27 26
26 25 24 25 25 25 25 25 26 26 25 25 27 28 28 28 27 28 29 30 30 31 31 32 33 33 33 34 35 35 36 36 37 37 37 36 36 36 35 33 33 32 31 30 30 29 29 29 28
26 25 25 24 23 24 24 25 25 25 26 26 27 28 29 29 27 28 30 30 31 31 32 33 33 34 34 35 36 36 37 37 38 38 37 37 37 37 37 35 35 34 32 31 31 30 30 29 29
26 26 25 24 24 24 25 25 25 25 26 26 27 28 28 29 28 29 30 30 31 32 33 34 34 35 35 35 36 36 36 36 37 38 38 38 38 38 38 37 36 35 34 33 32 32 31 31 30
27 27 27 26 25 24 26 26 25 26 26 26 27 28 28 28 29 29 31 31 32 32 33 35 35 34 35 35 35 35 35 36 37 38 39 39 38 39 39 38 37 37 36 34 33 33 33 33 32
29 29 28 26 25 26 27 26 26 26 27 27 27 28 28 28 29 30 31 32 33 33 33 35 36 35 34 34 35 35 35 36 37 38 39 39 39 39 39 40 39 38 37 35 35 34 34 34 33
30 29 29 28 27 26 27 27 26 26 27 27 27 28 28 28 29 30 31 32 33 32 32 33 35 35 34 34 34 36 36 37 37 37 38 40 40 39 40 41 40 39 38 37 36 36 36 35 35
30 30 29 29 28 28 27 27 26 26 27 27 28 28 29 28 29 30 31 31 32 32 32 32 34 34 34 34 34 35 36 37 37 37 37 39 40 39 40 40 40 40 39 37 37 38 37 37 36
30 30 30 29 29 29 29 28 27 28 28 28 29 28 29 29 29 30 31 31 32 32 31 32 33 35 35 35 34 34 34 35 36 36 37 38 40 39 40 40 41 41 41 39 38 38 38 38 37
30 30 30 30 30 31 31 30 29 29 29 29 29 28 28 28 29 29 30 31 31 31 31 32 32 34 34 33 33 33 33 33 34 35 37 37 39 39 40 41 41 41 42 41 39 38 39 38 38
32 31 31 32 31 32 32 31 30 29 29 28 28 28 28 29 29 29 30 30 30 30 30 31 31 33 33 33 33 33 33 34 34 35 36 37 39 38 39 40 41 41 41 41 40 39 40 39 39
32 31 31 31 32 32 31 31 28 28 28 27 27 28 28 29 28 28 28 28 28 29 29 29 30 31 31 33 34 33 32 33 34 36 37 37 37 37 38 39 40 40 40 40 40 41 41 40 41
32 32 32 32 32 32 31 32 29 28 27 27 27 27 27 27 27 27 29 29 28 29 29 29 30 31 31 31 32 32 32 32 33 35 36 37 36 37 38 39 40 40 40 39 40 40 41 41 42
33 32 32 32 32 33 30 32 31 29 28 26 26 26 26 26 26 27 28 29 28 28 29 29 29 30 31 31 31 31 32 33 33 33 35 35 35 37 37 39 39 40 41 40 40 40 40 41 43
33 33 33 33 32 32 30 31 31 28 27 26 26 26 26 26 26 26 27 27 27 28 28 28 29 29 30 30 30 31 30 31 33 33 33 35 36 37 38 40 40 41 41 41 41 41 41 42 43
33 33 33 33 32 32 30 30 29 28 27 27 27 26 26 26 26 26 27 27 27 27 27 28 29 29 29 30 30 31 30 30 32 33 34 34 36 37 38 40 41 41 42 42 40 41 42 44 45
34 33 32 33 33 32 31 30 29 27 28 27 27 27 27 26 26 26 27 27 27 27 27 28 28 28 29 30 31 31 32 32 32 33 34 35 35 37 39 40 40 41 42 42 41 41 42 43 45
34 33 32 32 33 32 31 30 29 28 28 28 27 28 28 27 27 27 28 28 28 28 28 28 28 28 29 30 31 31 31 31 32 33 35 35 35 37 39 40 40 41 42 43 42 41 41 43 45
33 33 32 33 33 32 31 29 28 28 28 28 28 28 28 27 28 29 29 29 29 29 28 28 28 27 28 29 29 30 31 32 33 33 34 35 35 37 38 39 40 41 42 42 43 44 44 44 45
34 33 33 34 33 33 32 31 29 29 29 30 29 29 28 29 29 29 29 29 29 29 28 28 28 27 28 28 30 31 32 33 33 33 34 34 35 37 38 39 40 41 41 42 43 44 44 44 45
Wind_Direction
266 264 262 261 261 261 262 262 261 260 260 259 257 255 253 252 250 253 254 254 251 249 248 248 247 246 245 244 242 241 241 240 239 239 238 237 237 237 237 238 239 238 237 237 238 240 243 247 250
266 264 263 262 262 262 261 261 261 260 259 256 254 253 252 250 249 250 252 252 252 250 248 248 246 246 245 244 243 242 242 242 241 241 241 240 239 240 240 240 241 242 241 241 241 242 244 248 252
268 266 264 264 264 264 263 262 261 260 258 255 254 251 250 249 248 249 251 251 250 248 247 247 246 246 245 245 244 243 243 243 244 244 243 243 243 242 243 244 243 243 244 244 244 245 247 249 253
269 267 265 264 265 263 263 262 262 262 260 257 254 251 250 249 248 248 249 250 250 248 247 246 245 245 246 246 245 244 243 243 244 246 246 245 245 245 245 247 246 245 246 247 247 248 249 251 254
269 268 266 265 264 263 262 263 263 263 260 257 255 253 251 249 247 247 249 249 249 247 247 246 245 245 245 245 245 245 245 243 244 246 246 247 248 248 247 247 247 247 246 247 248 249 251 252 254
270 269 267 267 266 265 264 264 264 262 261 258 256 254 251 251 248 246 247 247 248 247 246 246 246 246 246 245 245 245 246 244 245 246 248 249 249 248 249 248 249 248 247 248 249 251 252 253 256
270 268 268 268 267 267 266 265 264 264 261 258 258 255 252 252 249 247 248 247 246 246 246 247 247 247 247 246 246 245 246 246 246 246 248 250 251 250 249 250 250 249 248 248 249 252 253 254 256
269 269 269 268 267 268 267 266 266 266 261 258 258 256 253 251 251 250 249 249 248 247 247 248 248 248 248 248 247 246 246 246 247 247 248 248 250 251 250 251 252 251 250 248 249 251 253 255 257
268 269 269 269 269 269 267 266 266 266 263 258 257 255 253 251 251 251 250 249 249 248 249 249 249 249 249 249 248 247 247 247 248 248 248 248 249 251 251 251 252 253 252 250 251 252 253 255 257
267 269 270 269 270 269 267 267 267 265 264 261 257 255 255 253 251 252 251 250 250 250 249 249 249 249 250 251 250 250 249 249 249 249 249 249 250 251 251 250 251 253 253 252 252 253 255 256 257
266 268 270 269 271 271 268 267 266 266 264 262 258 255 256 255 254 252 253 252 252 252 251 250 251 251 252 252 252 252 251 250 250 250 249 249 250 251 252 252 252 253 253 253 253 254 255 257 258
266 266 269 270 271 271 270 268 266 266 265 261 258 255 256 258 257 253 254 253 253 253 252 252 253 253 253 254 254 253 252 251 250 250 250 249 250 251 251 252 252 251 252 254 254 254 255 257 259
265 264 266 268 269 271 269 268 267 267 265 260 258 259 260 260 258 255 255 255 254 254 253 253 253 255 256 256 256 255 253 252 251 250 250 250 249 250 250 251 251 249 249 252 253 252 254 256 258
265 264 266 268 269 271 269 269 269 268 266 264 261 261 261 260 258 258 258 257 255 255 254 254 255 257 257 256 256 255 254 252 251 251 250 249 249 249 248 249 249 249 250 251 251 251 253 255 257
265 265 266 266 268 270 269 268 268 268 267 265 263 262 263 261 260 260 260 260 257 255 255 255 255 256 257 257 255 255 254 253 252 251 250 248 247 247 246 247 248 249 250 251 251 252 253 255 257
264 264 265 266 268 269 268 267 268 269 268 267 264 262 263 263 259 260 260 260 258 256 256 256 255 255 258 258 256 255 255 255 254 252 250 247 246 245 245 246 248 250 251 252 252 253 255 256 257
263 264 265 265 267 267 266 267 268 269 269 268 265 263 264 264 261 261 261 260 260 258 257 256 255 255 257 257 256 255 255 254 255 253 250 247 246 246 246 247 248 249 250 251 253 254 255 257 258
265 265 264 265 266 267 266 266 267 268 268 268 267 265 265 265 264 264 263 262 261 259 258 258 256 255 257 258 258 256 255 256 256 254 249 247 246 246 247 247 248 248 247 249 253 256 255 256 257
263 265 265 264 265 267 268 268 267 267 268 269 268 267 266 266 267 266 264 263 261 259 258 259 257 257 257 258 258 258 256 256 255 253 248 247 246 246 247 246 247 246 247 250 253 255 255 255 257
261 263 264 264 266 267 269 268 267 267 269 269 269 267 266 267 268 266 265 264 263 262 262 261 259 259 259 259 257 258 257 257 254 252 250 248 247 246 246 245 245 245 248 250 252 254 254 256 258
259 261 263 265 266 267 268 268 267 268 271 270 268 267 267 267 268 267 265 264 264 263 263 261 259 261 263 260 259 261 259 257 255 252 250 249 247 246 246 246 245 247 249 250 252 254 255 256 258
260 260 261 264 266 267 268 270 268 271 271 270 269 268 268 268 267 266 264 265 265 264 262 262 262 263 264 263 261 262 260 257 255 252 250 249 246 247 248 247 247 246 249 252 253 256 257 258 260
260 259 259 262 265 267 267 269 270 272 272 271 270 269 269 269 269 267 265 265 265 264 263 263 264 265 267 267 262 260 259 257 256 252 250 247 246 247 248 247 246 247 249 252 255 257 258 260 260
258 258 259 260 262 264 267 270 271 272 273 273 271 268 268 270 271 269 267 266 266 266 265 264 266 267 268 266 262 260 258 256 253 250 249 246 246 248 249 248 248 249 251 254 257 258 260 261 261
256 257 258 258 259 263 266 268 271 272 272 273 273 270 269 270 271 270 269 268 268 268 268 266 267 268 267 266 261 258 257 256 255 251 249 247 248 248 249 250 251 252 254 256 257 259 261 262 263
254 255 257 260 262 262 263 267 269 271 272 272 272 271 271 271 272 272 270 269 270 270 270 269 268 267 265 265 262 259 258 259 257 252 250 249 249 249 250 252 254 255 257 258 259 261 263 264 265
254 254 255 259 261 262 262 265 266 268 270 270 270 270 271 271 271 272 272 271 271 270 270 272 270 268 266 263 263 262 260 260 258 254 253 253 252 252 253 255 256 256 258 258 260 263 264 266 267
254 254 255 257 260 261 262 264 265 267 269 269 269 270 271 271 270 272 272 271 271 271 271 271 271 269 266 263 261 261 260 259 258 256 255 256 255 255 257 257 257 258 259 261 262 263 266 268 269
253 252 252 254 256 259 261 262 263 266 266 266 267 267 269 269 269 270 272 272 273 272 271 271 271 270 267 264 262 263 260 260 259 258 259 260 260 258 258 258 259 260 261 262 265 266 268 271 272
252 252 252 253 255 257 260 260 262 263 265 266 266 266 268 268 268 270 271 271 272 273 272 271 270 269 268 266 265 264 262 262 261 261 260 261 261 260 261 261 262 263 265 266 267 269 270 272 274
Height
5814 5814 5814 5815 5816 5816 5816 5818 5817 5818 5820 5821 5821 5823 5825 5826 5828 5831 5831 5832 5834 5835 5837 5838 5839 5840 5841 5842 5844 5845 5846 5848 5849 5850 5851 5852 5853 5855 5856 5857 5857 5858 5859 5860 5861 5861 5862 5862 5863
5809 5809 5810 5810 5810 5810 5812 5812 5812 5813 5815 5815 5816 5818 5820 5821 5822 5824 5826 5828 5829 5831 5833 5834 5836 5837 5838 5839 5840 5842 5843 5844 5846 5847 5848 5849 5851 5852 5853 5854 5855 5856 5857 5858 5858 5859 5860 5860 5861
5804 5804 5805 5805 5805 5805 5806 5806 5806 5808 5809 5809 5811 5813 5814 5816 5817 5819 5821 5823 5825 5826 5828 5830 5832 5833 5834 5835 5837 5838 5839 5841 5842 5844 5845 5846 5848 5849 5850 5851 5852 5853 5854 5855 5856 5857 5858 5858 5859
5799 5799 5799 5800 5799 5800 5800 5800 5801 5802 5803 5804 5805 5807 5809 5811 5812 5814 5816 5818 5820 5822 5824 5825 5827 5829 5830 5831 5833 5834 5836 5837 5838 5840 5841 5843 5844 5845 5847 5848 5849 5850 5851 5852 5853 5854 5855 5856 5856
5793 5793 5793 5793 5794 5795 5794 5795 5796 5796 5797 5798 5799 5801 5803 5805 5807 5809 5811 5813 5815 5817 5819 5820 5822 5824 5825 5827 5828 5830 5831 5833 5834 5836 5837 5839 5840 5842 5843 5844 5846 5847 5848 5849 5850 5851 5852 5853 5853
5788 5787 5788 5788 5788 5789 5789 5789 5790 5790 5791 5792 5793 5795 5796 5798 5801 5803 5805 5807 5809 5811 5813 5815 5817 5818 5820 5822 5824 5825 5827 5828 5829 5831 5833 5834 5836 5837 5839 5840 5842 5843 5844 5846 5847 5848 5849 5849 5850
5783 5782 5782 5782 5782 5782 5783 5783 5784 5784 5785 5786 5787 5788 5791 5792 5794 5797 5799 5801 5803 5805 5807 5809 5811 5813 5815 5817 5818 5820 5821 5823 5825 5826 5828 5830 5831 5833 5835 5836 5837 5839 5840 5842 5843 5844 5845 5846 5847
5776 5777 5776 5776 5776 5776 5777 5777 5777 5778 5778 5780 5781 5782 5784 5786 5788 5791 5793 5795 5797 5799 5801 5803 5805 5807 5809 5811 5813 5814 5816 5817 5819 5821 5823 5824 5826 5828 5830 5831 5833 5834 5836 5837 5838 5840 5841 5842 5843
5770 5771 5770 5770 5770 5770 5771 5771 5771 5771 5772 5773 5774 5776 5778 5780 5782 5784 5787 5788 5790 5792 5794 5796 5799 5801 5803 5804 5806 5808 5809 5811 5813 5815 5817 5819 5820 5822 5824 5826 5828 5829 5831 5832 5834 5835 5836 5837 5838
5764 5764 5765 5765 5764 5764 5764 5764 5765 5765 5766 5767 5768 5770 5771 5774 5776 5778 5780 5782 5784 5785 5787 5789 5792 5793 5795 5797 5799 5801 5803 5805 5807 5808 5810 5812 5814 5816 5818 5820 5822 5824 5825 5827 5828 5829 5831 5832 5833
5758 5759 5759 5758 5758 5758 5758 5758 5758 5758 5760 5762 5763 5764 5766 5768 5769 5771 5773 5775 5777 5778 5780 5782 5784 5786 5788 5790 5791 5793 5795 5797 5799 5801 5803 5805 5807 5809 5811 5814 5816 5818 5819 5820 5822 5824 5825 5827 5828
5752 5753 5752 5752 5752 5751 5751 5752 5752 5753 5754 5755 5756 5757 5759 5761 5763 5765 5767 5768 5770 5771 5773 5775 5776 5778 5780 5781 5783 5785 5786 5788 5790 5793 5795 5797 5800 5802 5804 5807 5809 5811 5813 5815 5816 5818 5819 5821 5822
5746 5747 5746 5746 5746 5746 5746 5746 5746 5748 5748 5749 5750 5751 5753 5754 5756 5758 5759 5761 5762 5764 5765 5767 5768 5769 5771 5772 5774 5775 5777 5779 5781 5783 5786 5789 5791 5793 5796 5799 5801 5804 5806 5808 5809 5811 5813 5814 5815
5740 5740 5740 5740 5740 5740 5740 5741 5741 5742 5742 5742 5743 5745 5746 5747 5749 5750 5751 5753 5754 5756 5757 5758 5760 5760 5761 5763 5764 5766 5767 5769 5771 5774 5776 5779 5782 5785 5787 5791 5793 5796 5798 5800 5802 5804 5806 5807 5809
5733 5734 5734 5735 5734 5734 5734 5735 5735 5736 5735 5736 5737 5738 5739 5740 5741 5742 5743 5745 5746 5747 5748 5750 5750 5751 5752 5754 5755 5756 5758 5760 5762 5764 5767 5769 5772 5775 5778 5782 5785 5788 5790 5792 5794 5796 5798 5800 5802
5727 5727 5728 5729 5728 5728 5729 5729 5730 5729 5729 5730 5730 5731 5732 5732 5733 5734 5735 5736 5737 5738 5739 5741 5741 5743 5744 5745 5746 5748 5749 5751 5752 5754 5757 5760 5763 5766 5769 5773 5776 5779 5782 5785 5787 5789 5791 5793 5794
5720 5721 5721 5722 5722 5722 5722 5723 5723 5722 5722 5723 5723 5724 5725 5725 5725 5726 5727 5728 5728 5729 5730 5732 5733 5734 5734 5735 5737 5738 5740 5741 5743 5744 5747 5750 5753 5756 5760 5763 5766 5770 5773 5776 5779 5781 5783 5785 5787
5714 5714 5715 5715 5716 5715 5715 5716 5717 5716 5716 5716 5716 5717 5717 5718 5718 5718 5718 5719 5720 5721 5722 5723 5724 5724 5725 5726 5728 5729 5730 5732 5733 5735 5737 5740 5744 5747 5751 5754 5757 5761 5765 5768 5770 5773 5775 5777 5778
5707 5707 5708 5709 5709 5709 5709 5709 5710 5709 5710 5710 5710 5710 5710 5710 5710 5710 5710 5711 5712 5713 5714 5715 5716 5717 5717 5718 5719 5720 5721 5722 5724 5726 5728 5731 5734 5738 5741 5745 5748 5752 5756 5758 5762 5764 5766 5768 5769
5700 5700 5701 5702 5702 5702 5701 5702 5703 5702 5703 5703 5703 5703 5703 5703 5703 5703 5703 5703 5704 5705 5706 5707 5708 5708 5708 5709 5710 5711 5712 5714 5715 5717 5719 5722 5725 5729 5732 5735 5739 5743 5746 5749 5752 5755 5757 5758 5760
5692 5693 5695 5695 5695 5695 5695 5695 5696 5696 5696 5696 5696 5696 5696 5696 5696 5696 5697 5697 5697 5698 5699 5699 5700 5700 5701 5702 5702 5703 5704 5705 5707 5709 5711 5714 5717 5720 5723 5726 5730 5734 5737 5740 5743 5745 5747 5749 5751
5685 5687 5687 5687 5687 5688 5688 5687 5690 5689 5689 5690 5690 5690 5690 5690 5689 5689 5690 5690 5691 5691 5692 5692 5692 5693 5693 5693 5694 5695 5696 5697 5699 5701 5703 5705 5708 5711 5714 5718 5721 5725 5728 5731 5733 5735 5737 5739 5741
5678 5679 5680 5680 5680 5680 5681 5680 5683 5683 5683 5683 5683 5683 5683 5683 5683 5683 5683 5684 5684 5684 5684 5684 5685 5685 5685 5686 5686 5687 5688 5689 5691 5692 5695 5697 5700 5703 5706 5709 5712 5716 5719 5721 5723 5725 5727 5728 5731
5669 5671 5671 5671 5671 5672 5675 5674 5675 5676 5677 5677 5677 5677 5677 5677 5677 5677 5677 5677 5677 5677 5677 5677 5678 5678 5678 5678 5679 5679 5681 5682 5683 5685 5687 5689 5692 5695 5697 5700 5703 5706 5709 5712 5714 5715 5716 5718 5720
5661 5662 5663 5663 5663 5665 5668 5666 5668 5670 5670 5670 5670 5671 5671 5671 5671 5671 5670 5670 5670 5671 5670 5670 5671 5671 5671 5671 5671 5672 5673 5674 5675 5677 5679 5681 5684 5686 5689 5691 5694 5697 5699 5702 5704 5705 5707 5708 5709
5652 5654 5656 5656 5656 5659 5660 5660 5662 5663 5663 5663 5664 5664 5665 5664 5664 5664 5664 5664 5664 5664 5663 5663 5663 5664 5664 5664 5664 5665 5666 5667 5668 5669 5671 5673 5676 5678 5681 5683 5686 5688 5690 5692 5694 5695 5696 5697 5698
5643 5645 5648 5648 5648 5650 5652 5653 5656 5656 5656 5657 5658 5658 5658 5658 5658 5658 5658 5657 5657 5657 5657 5656 5656 5656 5656 5657 5657 5658 5659 5660 5661 5662 5664 5666 5668 5670 5672 5674 5676 5678 5681 5682 5683 5685 5686 5686 5687
5636 5638 5639 5639 5640 5641 5644 5647 5649 5649 5650 5650 5651 5651 5651 5652 5652 5652 5651 5651 5650 5650 5650 5649 5649 5649 5649 5649 5650 5650 5651 5652 5653 5655 5656 5658 5660 5661 5663 5665 5667 5669 5670 5672 5673 5674 5675 5675 5676
5628 5630 5630 5632 5633 5634 5636 5641 5641 5641 5642 5643 5643 5643 5644 5644 5644 5644 5644 5644 5643 5643 5643 5642 5642 5642 5642 5642 5642 5643 5643 5644 5645 5646 5648 5649 5651 5653 5654 5656 5658 5659 5660 5661 5662 5663 5663 5663 5664
5618 5620 5622 5624 5625 5626 5627 5633 5634 5634 5634 5634 5635 5636 5636 5636 5636 5636 5636 5636 5636 5635 5635 5635 5634 5634 5634 5634 5634 5635 5636 5636 5637 5638 5640 5641 5642 5644 5645 5646 5647 5649 5649 5650 5650 5651 5651 5651 5651